Belmar-Farmingdale, NJ

2:13 AM EST on November 15, 2019 (GMT -0500)
Allaire

Weather History for KBLM - September, 2019

Change the Weather History Date:

Saturday, September 21, 2019

  Actual Average Record
Temperature  
Mean Temperature 68 °F -  
Max Temperature 84 °F 70 °F 84 °F (1998)
Min Temperature 55 °F 55 °F 46 °F (2006)
Cooling Degree Days 4    
Growing Degree Days 18 (Base 50)    
Moisture  
Dew Point 57 °F    
Average Humidity 70    
Maximum Humidity 93    
Minimum Humidity 33    
Precipitation  
Precipitation 0.00 in - - ()
Sea Level Pressure  
Sea Level Pressure 30.22 in    
Wind  
Wind Speed 5 mph ()    
Max Wind Speed 8 mph    
Max Gust Speed -    
Visibility 10.0 miles    
Events      
Averages and records for this station are not official NWS values.
T = Trace of Precipitation, MM = Missing Value Source: Averaged Metar Reports

Daily Weather History Graph

Daily Weather History Graph

Search for Another Location

Airport or City:

Astronomy

Sep. 21, 2019 Rise Set
Actual Time 6:42 AM EDT 6:55 PM EDT
Civil Twilight 6:15 AM EDT 7:22 PM EDT
Nautical Twilight 5:43 AM EDT 7:54 PM EDT
Astronomical Twilight 5:11 AM EDT 8:26 PM EDT
Moon 11:30 PM EDT (9/21) 1:46 PM EDT (9/21)
Length of Visible Light 13h 07m
Length of Day
12h 12m
Waning Gibbous, 55% of the Moon is Illuminated
Sep 21
Waning Gibbous
Sep 21
Last Quarter
Sep 28
New
Oct 5
First Quarter
Oct 13
Full

Hourly Weather History & Observations

Time (EDT) Temp. Heat Index Dew Point Humidity Pressure Visibility Wind Dir Wind Speed Gust Speed Precip Events Conditions
12:56 AM 59.0 °F - 53.1 °F 81% 30.22 in 10.0 mi SSW 4.6 mph - N/A   Clear
1:56 AM 57.9 °F - 53.1 °F 84% 30.23 in 10.0 mi WSW 5.8 mph - N/A   Clear
2:56 AM 57.0 °F - 53.1 °F 87% 30.23 in 10.0 mi WSW 5.8 mph - N/A   Clear
3:56 AM 57.0 °F - 53.1 °F 87% 30.23 in 10.0 mi SW 5.8 mph - N/A   Clear
4:56 AM 55.9 °F - 53.1 °F 90% 30.23 in 10.0 mi WSW 5.8 mph - N/A   Clear
5:56 AM 55.0 °F - 53.1 °F 93% 30.23 in 10.0 mi WSW 4.6 mph - N/A   Clear
6:56 AM 55.0 °F - 53.1 °F 93% 30.24 in 10.0 mi SW 8.1 mph - N/A   Clear
7:56 AM 57.9 °F - 55.0 °F 90% 30.24 in 10.0 mi West 4.6 mph - N/A   Clear
8:56 AM 66.0 °F - 57.0 °F 73% 30.25 in 10.0 mi West 5.8 mph - N/A   Clear
9:56 AM 71.1 °F - 57.0 °F 61% 30.25 in 10.0 mi West 5.8 mph - N/A   Clear
10:56 AM 75.0 °F - 55.9 °F 51% 30.25 in 10.0 mi WNW 6.9 mph - N/A   Clear
11:56 AM 78.1 °F - 55.9 °F 46% 30.24 in 9.0 mi West 5.8 mph - N/A   Clear
12:56 PM 81.0 °F 80.8 °F 55.9 °F 42% 30.23 in 10.0 mi Calm Calm - N/A   Clear
1:56 PM 81.0 °F 80.8 °F 55.9 °F 42% 30.21 in 10.0 mi Variable 6.9 mph - N/A   Clear
2:56 PM 82.9 °F - 51.1 °F 33% 30.19 in 10.0 mi WNW 3.5 mph - N/A   Clear
3:56 PM 80.1 °F 81.1 °F 61.0 °F 52% 30.18 in 10.0 mi SSE 6.9 mph - N/A   Clear
4:56 PM 79.0 °F - 60.1 °F 52% 30.18 in 10.0 mi SSE 6.9 mph - N/A   Clear
5:56 PM 75.9 °F - 57.9 °F 54% 30.18 in 10.0 mi SE 6.9 mph - N/A   Clear
6:56 PM 72.0 °F - 60.1 °F 66% 30.18 in 10.0 mi SE 4.6 mph - N/A   Clear
7:56 PM 69.1 °F - 61.0 °F 75% 30.19 in 10.0 mi South 3.5 mph - N/A   Clear
8:56 PM 66.9 °F - 61.0 °F 81% 30.19 in 10.0 mi South 4.6 mph - N/A   Clear
9:56 PM 66.0 °F - 60.1 °F 81% 30.20 in 10.0 mi South 4.6 mph - N/A   Clear
10:56 PM 64.9 °F - 61.0 °F 87% 30.20 in 10.0 mi SW 5.8 mph - N/A   Clear
11:56 PM 63.0 °F - 60.1 °F 90% 30.21 in 10.0 mi SW 4.6 mph - N/A   Clear